Simultaneous Nadir Overpasses (SNOs) Predictions

Prediction of SNOs between NOAA-15 and METOP-C Satellite Orbit:

Table of predicted SNOs for the next 14.0 days since TLE Epoch: 12/31/2022
Index Date (NOAA-15) Time (NOAA-15) Lat,Lon (NOAA-15) SZA (NOAA-15 ) Date (METOP-C) Time (METOP-C) Lat,Lon (METOP-C) SZA (METOP-C ) Distance(km) Time Diff (sec)
1 01/10/2023 12:09:04 -81.06,-143.54 75.33 01/10/2023 12:07:53 -81.07,-143.50 75.35 0.92 71
2 01/10/2023 12:59:33 81.07, 23.66 104.66 01/10/2023 12:58:35 81.06, 23.67 104.63 0.95 58
3 01/10/2023 13:50:06 -81.07,-169.00 75.35 01/10/2023 13:49:15 -81.06,-169.01 75.38 1.11 51
4 01/10/2023 14:40:34 81.06, -1.43 104.66 01/10/2023 14:39:56 81.07, -1.47 104.65 0.98 38
5 01/10/2023 15:31:07 -81.06, 165.91 75.36 01/10/2023 15:30:36 -81.07, 165.86 75.37 1.19 31
6 01/10/2023 16:21:36 81.07, -26.89 104.64 01/10/2023 16:21:18 81.06, -26.97 104.61 1.73 18
7 01/10/2023 17:12:09 -81.07, 140.46 75.38 01/10/2023 17:11:58 -81.06, 140.35 75.40 2.18 11
8 01/10/2023 18:02:37 81.07, -51.98 104.63 01/10/2023 18:02:39 81.07, -52.11 104.63 2.31 2
9 01/10/2023 18:53:10 -81.07, 115.37 75.38 01/10/2023 18:53:19 -81.07, 115.21 75.39 2.80 9
10 01/10/2023 19:43:39 81.07, -77.44 104.61 01/10/2023 19:44:01 81.07, -77.62 104.60 3.17 22
11 01/10/2023 20:34:12 -81.07, 89.92 75.40 01/10/2023 20:34:40 -81.08, 90.08 75.37 2.84 28
12 01/10/2023 21:24:41 81.08,-102.90 104.59 01/10/2023 21:25:22 81.07,-102.75 104.61 2.87 41
13 01/10/2023 22:15:14 -81.08, 64.46 75.42 01/10/2023 22:16:02 -81.07, 64.57 75.40 2.24 48
14 01/10/2023 23:05:42 81.08,-127.99 104.59 01/10/2023 23:06:43 81.08,-127.89 104.62 1.93 61



Historial Predications of SNOs between NOAA-15 and METOP-C
